FW9050 Weather Reports


time (UTC)temp
C
wind
direction
speed
KPH
gust
KPH
rain 1hr
cm
rain 24hr
cm
rain mn
cm
humidity
%
barometer
mb
20260505071552 15 153 3.2 9.7 0.00 0.00 0.00 66 1011.2
20260505071048 15 147 1.6 8.0 0.00 0.00 0.00 66 1011.1
20260505070548 16 172 1.6 8.0 0.00 0.00 0.00 65 1011.1
20260505070051 16 224 1.6 6.4 0.00 0.00 0.00 66 1011.0
20260505065551 15 153 1.6 4.8 0.00 0.00 0.00 66 1011.0
20260505065050 15 132 1.6 3.2 0.00 0.00 0.00 66 1011.1
20260505064617 15 115 0.0 3.2 0.00 0.00 0.00 66 1011.0
20260505064047 16 165 0.0 4.8 0.00 0.00 0.00 65 1011.0
20260505063548 16 159 1.6 4.8 0.00 0.00 0.00 65 1011.1
20260505063056 16 143 1.6 4.8 0.00 0.00 0.00 65 1011.2
20260505062548 16 159 0.0 6.4 0.00 0.00 0.00 65 1011.2
20260505062048 16 165 1.6 6.4 0.00 0.00 0.00 65 1011.1
20260505061552 16 205 1.6 8.0 0.00 0.00 0.00 65 1011.1
20260505061048 16 176 1.6 8.0 0.00 0.00 0.00 65 1011.2
20260505060548 16 181 3.2 4.8 0.00 0.00 0.00 65 1011.1
20260505055549 16 81 1.6 6.4 0.00 0.00 0.00 65 1011.2
20260505055048 16 155 0.0 3.2 0.00 0.00 0.00 65 1011.2
20260505054557 16 218 0.0 3.2 0.00 0.00 0.00 64 1011.2
20260505054049 16 219 0.0 4.8 0.00 0.00 0.00 64 1011.2
20260505053547 16 211 0.0 4.8 0.00 0.00 0.00 64 1011.3
20260505053052 16 143 1.6 3.2 0.00 0.00 0.00 63 1011.4
20260505052548 16 127 0.0 3.2 0.00 0.00 0.00 63 1011.3
20260505052048 16 140 0.0 4.8 0.00 0.00 0.00 62 1011.3
20260505051552 16 212 0.0 4.8 0.00 0.00 0.00 62 1011.3
20260505051049 16 162 0.0 4.8 0.00 0.00 0.00 62 1011.4
20260505050547 17 148 1.6 4.8 0.00 0.00 0.00 61 1011.4
20260505041551 17 147 3.2 8.0 0.00 0.00 0.00 58 1011.3
20260505041047 17 148 1.6 9.7 0.00 0.00 0.00 58 1011.3
20260505040552 17 122 4.8 9.7 0.00 0.00 0.00 57 1011.2
20260505035547 17 150 3.2 6.4 0.00 0.00 0.00 57 1011.2
20260505035049 17 165 1.6 6.4 0.00 0.00 0.00 58 1011.1
20260505034553 17 90 1.6 6.4 0.00 0.00 0.00 57 1011.3
20260505034059 17 156 3.2 6.4 0.00 0.00 0.00 57 1011.2
20260505033548 17 224 1.6 4.8 0.00 0.00 0.00 57 1011.2
20260505033056 17 188 1.6 4.8 0.00 0.00 0.00 57 1011.4
20260505032548 17 160 0.0 4.8 0.00 0.00 0.00 57 1011.2
20260505032048 17 177 1.6 6.4 0.00 0.00 0.00 57 1011.2
20260505031559 17 162 3.2 6.4 0.00 0.00 0.00 56 1011.3
20260505031050 17 200 1.6 6.4 0.00 0.00 0.00 56 1011.2
20260505030549 18 157 3.2 6.4 0.00 0.00 0.00 56 1011.1
20260505030054 17 154 1.6 6.4 0.00 0.00 0.00 56 1011.1
20260505025548 18 160 1.6 6.4 0.00 0.00 0.00 56 1011.0
20260505025049 18 163 1.6 6.4 0.00 0.00 0.00 55 1011.1
20260505024553 17 141 1.6 4.8 0.00 0.00 0.00 56 1011.2
20260505024048 17 158 0.0 8.0 0.00 0.00 0.00 56 1011.1
20260505023549 18 200 1.6 8.0 0.00 0.00 0.00 56 1011.2
20260505023052 17 170 1.6 8.0 0.00 0.00 0.00 56 1011.2
20260505022549 17 155 1.6 8.0 0.00 0.00 0.00 56 1011.1
20260505022049 17 155 3.2 8.0 0.00 0.00 0.00 56 1011.1
20260505021552 17 169 1.6 4.8 0.00 0.00 0.00 56 1011.0
20260505021047 17 149 1.6 4.8 0.00 0.00 0.00 55 1011.1
20260505020550 17 165 0.0 1.6 0.00 0.00 0.00 55 1011.0
20260505020052 18 165 0.0 1.6 0.00 0.00 0.00 54 1010.9
20260505015549 18 149 0.0 3.2 0.00 0.00 0.00 54 1011.0
20260505015048 18 149 0.0 3.2 0.00 0.00 0.00 53 1011.0
20260505014603 18 146 0.0 1.6 0.00 0.00 0.00 53 1011.1
20260505014051 18 175 0.0 1.6 0.00 0.00 0.00 53 1010.9
20260505013549 18 174 0.0 3.2 0.00 0.00 0.00 52 1010.8
20260505013052 18 172 0.0 3.2 0.00 0.00 0.00 53 1010.6
20260505012548 18 171 0.0 1.6 0.00 0.00 0.00 51 1010.7
20260505012048 18 169 0.0 4.8 0.00 0.00 0.00 52 1010.3
20260505011554 19 151 1.6 4.8 0.00 0.00 0.00 51 1010.4
20260505011049 19 223 1.6 4.8 0.00 0.00 0.00 50 1010.5
20260505010551 19 138 0.0 6.4 0.00 0.00 0.00 50 1010.5
20260505010052 19 228 1.6 6.4 0.00 0.00 0.00 49 1010.4
20260505005549 19 173 1.6 3.2 0.00 0.00 0.00 49 1010.3
20260505005048 20 167 0.0 3.2 0.00 0.00 0.00 48 1010.3
20260505004557 20 243 0.0 4.8 0.00 0.00 0.00 48 1010.3
20260505004047 20 205 1.6 4.8 0.00 0.00 0.00 47 1010.2
20260505003550 20 153 1.6 6.4 0.00 0.00 0.00 47 1010.2
20260505003056 20 231 1.6 6.4 0.00 0.00 0.00 46 1010.2
20260505002551 20 167 1.6 6.4 0.00 0.00 0.00 46 1010.2
20260505002048 20 185 3.2 6.4 0.00 0.00 0.00 46 1010.1
20260505001557 20 173 3.2 6.4 0.00 0.00 0.00 46 1010.1
20260505001048 20 240 1.6 6.4 0.00 0.00 0.00 46 1010.3
20260505000548 20 240 1.6 6.4 0.00 0.00 0.00 46 1010.3
20260505000057 20 158 1.6 6.4 0.00 0.00 0.00 46 1010.3
20260504235550 21 204 1.6 6.4 0.00 0.00 0.00 45 1010.2
20260504235048 21 218 1.6 4.8 0.00 0.00 0.00 44 1010.2
20260504234555 21 162 1.6 6.4 0.00 0.00 0.00 45 1010.0
20260504234049 21 201 3.2 6.4 0.00 0.00 0.00 44 1010.0
20260504233549 21 219 1.6 9.7 0.00 0.00 0.00 44 1010.1
20260504233055 21 214 3.2 9.7 0.00 0.00 0.00 44 1010.0
20260504232549 21 185 1.6 6.4 0.00 0.00 0.00 43 1010.0
20260504232049 22 131 3.2 4.8 0.00 0.00 0.00 42 1010.0
20260504231556 22 167 1.6 12.9 0.00 0.00 0.00 43 1009.9
20260504231048 22 203 4.8 12.9 0.00 0.00 0.00 41 1010.0
20260504230549 22 167 4.8 11.3 0.00 0.00 0.00 41 1010.0
20260504230058 22 195 4.8 12.9 0.00 0.00 0.00 41 1010.0
20260504225550 22 155 4.8 12.9 0.00 0.00 0.00 41 1010.0
20260504225048 22 112 4.8 16.1 0.00 0.00 0.00 40 1010.0
20260504224559 22 162 4.8 16.1 0.00 0.00 0.00 40 1010.0
20260504224051 22 191 4.8 19.3 0.00 0.00 0.00 41 1010.1
20260504223552 22 153 8.0 19.3 0.00 0.00 0.00 40 1010.0
20260504223057 22 180 6.4 17.7 0.00 0.00 0.00 40 1010.0
20260504222552 22 146 6.4 19.3 0.00 0.00 0.00 39 1009.8
20260504222047 22 197 6.4 19.3 0.00 0.00 0.00 40 1009.8
20260504221600 22 207 4.8 12.9 0.00 0.00 0.00 41 1009.8
20260504221049 22 224 3.2 12.9 0.00 0.00 0.00 41 1009.9
20260504220548 22 195 4.8 12.9 0.00 0.00 0.00 39 1009.8
20260504220056 22 229 1.6 11.3 0.00 0.00 0.00 40 1009.8
20260504215551 23 137 4.8 11.3 0.00 0.00 0.00 37 1009.8
20260504215050 23 150 4.8 11.3 0.00 0.00 0.00 37 1009.8
20260504214603 23 106 4.8 14.5 0.00 0.00 0.00 37 1009.9
20260504214048 23 153 4.8 14.5 0.00 0.00 0.00 38 1009.8
20260504213549 23 158 4.8 14.5 0.00 0.00 0.00 39 1009.8
20260504213058 23 214 3.2 14.5 0.00 0.00 0.00 37 1009.9
20260504212548 23 229 4.8 14.5 0.00 0.00 0.00 37 1010.0
20260504212049 23 122 4.8 8.0 0.00 0.00 0.00 37 1009.9
20260504211554 23 102 4.8 12.9 0.00 0.00 0.00 37 1009.9
20260504211048 23 210 3.2 12.9 0.00 0.00 0.00 40 1010.0
20260504210548 23 128 3.2 9.7 0.00 0.00 0.00 40 1009.9
20260504205549 23 226 3.2 11.3 0.00 0.00 0.00 38 1009.9
20260504205051 23 101 4.8 17.7 0.00 0.00 0.00 36 1009.9
20260504204608 23 160 6.4 17.7 0.00 0.00 0.00 38 1010.1
20260504204048 23 276 4.8 12.9 0.00 0.00 0.00 38 1009.9
20260504203548 23 284 4.8 9.7 0.00 0.00 0.00 36 1010.0
20260504203111 23 158 3.2 12.9 0.00 0.00 0.00 38 1010.0
20260504202550 23 163 3.2 12.9 0.00 0.00 0.00 41 1010.0
20260504202051 23 166 4.8 12.9 0.00 0.00 0.00 39 1010.1
20260504201551 23 313 1.6 14.5 0.00 0.00 0.00 39 1010.3
20260504201048 23 144 8.0 14.5 0.00 0.00 0.00 37 1010.4
20260504200548 23 181 4.8 14.5 0.00 0.00 0.00 38 1010.3
20260504200054 23 255 3.2 12.9 0.00 0.00 0.00 38 1010.4
20260504195548 23 268 4.8 12.9 0.00 0.00 0.00 39 1010.6
20260504195048 23 241 6.4 12.9 0.00 0.00 0.00 37 1010.6
20260504194553 23 122 4.8 14.5 0.00 0.00 0.00 38 1010.6
20260504194051 23 259 6.4 16.1 0.00 0.00 0.00 36 1010.8
20260504193548 24 205 8.0 16.1 0.00 0.00 0.00 36 1010.9
20260504193054 24 190 4.8 11.3 0.00 0.00 0.00 37 1010.9
20260504192547 25 113 4.8 11.3 0.00 0.00 0.00 35 1011.0
20260504192050 24 141 4.8 11.3 0.00 0.00 0.00 38 1011.2
20260504191600 23 150 3.2 11.3 0.00 0.00 0.00 41 1011.2
20260504191050 23 205 3.2 19.3 0.00 0.00 0.00 38 1011.4
20260504190548 23 153 8.0 19.3 0.00 0.00 0.00 37 1011.4
20260504190055 24 258 4.8 17.7 0.00 0.00 0.00 37 1011.4
20260504185548 24 259 1.6 9.7 0.00 0.00 0.00 40 1011.7
20260504185048 24 271 4.8 9.7 0.00 0.00 0.00 37 1011.7
20260504184556 24 271 3.2 9.7 0.00 0.00 0.00 38 1011.8
20260504184048 23 149 3.2 16.1 0.00 0.00 0.00 36 1011.8
20260504183548 23 170 6.4 16.1 0.00 0.00 0.00 38 1012.0
20260504183100 23 118 8.0 17.7 0.00 0.00 0.00 38 1012.0
20260504182549 23 217 4.8 17.7 0.00 0.00 0.00 37 1012.1
20260504182047 23 233 4.8 17.7 0.00 0.00 0.00 35 1012.2
20260504181551 23 228 4.8 14.5 0.00 0.00 0.00 39 1012.3
20260504181051 23 185 3.2 14.5 0.00 0.00 0.00 37 1012.1
20260504180552 23 86 3.2 14.5 0.00 0.00 0.00 38 1012.2
20260504180109 22 140 3.2 12.9 0.00 0.00 0.00 39 1012.3
20260504175548 23 138 4.8 16.1 0.00 0.00 0.00 36 1012.4
20260504175052 22 242 3.2 16.1 0.00 0.00 0.00 40 1012.5
20260504174551 22 231 4.8 12.9 0.00 0.00 0.00 38 1012.5
20260504174050 22 157 4.8 12.9 0.00 0.00 0.00 38 1012.7
20260504173548 22 212 3.2 12.9 0.00 0.00 0.00 39 1012.7
20260504173105 22 122 4.8 12.9 0.00 0.00 0.00 37 1012.9
20260504172548 22 274 3.2 12.9 0.00 0.00 0.00 37 1012.7
20260504172047 22 255 4.8 12.9 0.00 0.00 0.00 38 1012.9
20260504171556 22 165 4.8 12.9 0.00 0.00 0.00 38 1012.8
20260504171049 22 209 4.8 11.3 0.00 0.00 0.00 39 1013.0
20260504170551 22 192 4.8 11.3 0.00 0.00 0.00 35 1012.9
20260504151048 19 139 3.2 12.9 0.00 0.00 0.00 41 1014.0
20260504150548 19 275 3.2 12.9 0.00 0.00 0.00 40 1014.2
20260504141048 18 254 1.6 8.0 0.00 0.00 0.00 43 1014.1
20260504140549 17 163 1.6 8.0 0.00 0.00 0.00 51 1014.2
20260504140110 17 215 3.2 8.0 0.00 0.00 0.00 51 1014.3
20260504130548 15 231 1.6 8.0 0.00 0.00 0.00 55 1014.5
20260504110551 8 201 1.6 3.2 0.00 0.00 0.00 68 1015.2
20260504100550 9 145 1.6 4.8 0.00 0.00 0.00 67 1014.9
20260504081557 10 0 0.0 1.6 0.00 0.00 0.00 61 1015.4
20260504081049 10 0 0.0 3.2 0.00 0.00 0.00 61 1015.4
20260504080554 9 149 0.0 3.2 0.00 0.00 0.00 59 1015.4